Location: *
(35.8942°N, 23.3025°E)
Time: 22:20:37
(UTC+00:00)

ARIANE 5 R/B - Pass Details

Date: 21 September 2021
Orbit: 748 x 795 km, 98.7° (Epoch: 22 October)

Event Time Altitude Azimuth Distance (km) Brightness Sun altitude
Rises 01:42:08 0° 13° (NNE) 3,241 6.2 -30.5°
Reaches altitude 10° 01:44:27 10° 14° (NNE) 2,304 5.4 -30.1°
Enters shadow 01:48:23 55° 17° (NNE) 910 2.9 -29.4°
